FW9354 Weather Reports


time (UTC)temp
F
wind
direction
speed
knots
gust
knots
rain 1hr
in
rain 24hr
in
rain mn
in
humidity
%
barometer
mb
20260506034551 58 0 0.0 0.0 0.00 0.12 0.00 70 1013.6
20260506033045 58 0 0.0 0.9 0.00 0.12 0.00 67 1013.2
20260506031544 60 0 0.0 0.9 0.00 0.12 0.00 63 1013.0
20260506030044 60 0 0.0 0.9 0.00 0.12 0.00 61 1012.7
20260506024550 61 359 0.0 1.7 0.00 0.16 0.00 59 1012.6
20260506023041 63 0 0.0 1.7 0.00 0.16 0.00 57 1012.4
20260506021548 64 0 0.0 2.6 0.00 0.16 0.00 52 1012.1
20260506020053 65 257 0.0 6.1 0.00 0.16 0.00 48 1012.0
20260506014552 67 0 0.0 2.6 0.00 0.41 0.00 46 1011.7
20260506013043 67 210 0.9 2.6 0.00 0.41 0.00 46 1012.0
20260506011609 67 346 0.9 6.1 0.00 0.41 0.00 42 1012.1
20260506010051 68 14 2.6 8.7 0.00 0.41 0.00 41 1011.9
20260506004559 69 198 0.0 1.7 0.00 0.42 0.00 39 1012.2
20260506003046 69 312 0.0 4.3 0.00 0.42 0.00 38 1011.9
20260506001546 68 55 0.9 6.1 0.00 0.42 0.00 38 1012.0
20260506000111 69 334 0.9 7.8 0.00 0.42 0.00 40 1012.1
20260505234548 69 4 1.7 5.2 0.00 0.42 0.00 41 1012.0
20260505233042 68 106 0.9 5.2 0.00 0.42 0.00 43 1012.0
20260505231557 68 164 0.9 4.3 0.00 0.42 0.00 45 1012.3
20260505230101 68 158 0.9 4.3 0.00 0.42 0.00 44 1012.4
20260505224545 68 97 0.0 3.5 0.00 0.42 0.00 46 1012.3
20260505223044 66 359 3.5 7.8 0.00 0.42 0.00 44 1012.9
20260505221541 67 18 0.9 7.0 0.00 0.42 0.00 49 1012.9
20260505220044 65 169 0.0 4.3 0.00 0.42 0.00 46 1013.2
20260505214539 67 17 0.0 3.5 0.00 0.42 0.00 49 1013.3
20260505213044 67 0 0.9 4.3 0.00 0.42 0.00 49 1013.4
20260505211543 65 167 0.9 4.3 0.00 0.42 0.00 56 1013.6
20260505210044 63 333 0.0 7.0 0.00 0.42 0.00 54 1013.7
20260505204552 62 16 1.7 7.0 0.00 0.47 0.00 52 1013.9
20260505203052 64 37 1.7 6.1 0.00 0.47 0.00 52 1014.1
20260505201536 62 27 0.0 5.2 0.00 0.47 0.00 56 1014.2
20260505200047 62 192 2.6 5.2 0.00 0.47 0.00 60 1014.2
20260505194603 61 147 0.9 5.2 0.00 0.47 0.00 57 1014.1
20260505193042 61 186 1.7 4.3 0.00 0.47 0.00 59 1014.1
20260505191553 61 144 0.9 5.2 0.00 0.47 0.00 63 1014.2
20260505190042 59 332 0.0 2.6 0.00 0.47 0.00 69 1014.1
20260505184548 57 69 0.9 3.5 0.00 0.47 0.00 64 1014.1
20260505183043 57 162 0.0 4.3 0.00 0.47 0.00 67 1013.9
20260505181542 57 0 0.0 0.9 0.00 0.47 0.00 68 1013.8
20260505180047 57 179 1.7 4.3 0.00 0.47 0.00 71 1013.9
20260505174549 56 205 3.5 7.0 0.00 0.47 0.00 73 1013.5
20260505173059 55 210 1.7 5.2 0.00 0.47 0.00 78 1013.4
20260505171556 52 145 0.0 7.8 0.00 0.47 0.00 81 1013.4
20260505170044 51 150 2.6 6.1 0.00 0.47 0.00 83 1013.4
20260505164544 50 148 0.9 6.1 0.00 0.51 0.00 84 1013.2
20260505163049 49 168 1.7 4.3 0.00 0.51 0.00 84 1013.1
20260505161551 47 156 0.9 2.6 0.00 0.51 0.00 87 1012.9
20260505153043 45 143 0.0 3.5 0.00 0.51 0.00 89 1012.6
20260505151541 45 203 0.0 6.1 0.00 0.51 0.00 90 1012.5
20260505150106 45 139 0.0 1.7 0.00 0.51 0.00 94 1012.3
20260505124551 42 0 0.0 0.0 0.00 0.51 0.00 95 1011.1
20260505123053 41 206 0.0 1.7 0.00 0.51 0.00 95 1011.1
20260505121612 41 0 0.0 0.9 0.00 0.51 0.00 95 1011.1
20260505120046 41 0 0.0 0.9 0.00 0.51 0.00 95 1011.1
20260505114545 41 0 0.0 0.0 0.00 0.51 0.00 95 1011.0
20260505113048 42 0 0.0 0.0 0.00 0.51 0.00 95 1011.0
20260505111548 42 0 0.0 0.0 0.00 0.51 0.00 95 1011.0
20260505101546 41 0 0.0 0.0 0.00 0.51 0.00 95 1011.4
20260505100113 40 0 0.0 1.7 0.00 0.51 0.00 95 1011.4
20260505094545 40 169 0.0 1.7 0.00 0.51 0.00 95 1011.4
20260505093042 40 0 0.0 0.0 0.00 0.51 0.00 95 1011.5
20260505091552 40 0 0.0 0.9 0.00 0.51 0.00 95 1011.6
20260505090058 40 0 0.0 0.9 0.00 0.51 0.00 95 1011.7
20260505084547 40 0 0.0 0.9 0.00 0.51 0.00 95 1011.8
20260505083050 40 210 0.0 0.9 0.00 0.51 0.00 95 1012.0
20260505081546 40 212 0.0 0.9 0.00 0.51 0.00 95 1012.1
20260505080050 40 229 0.9 2.6 0.00 0.51 0.00 95 1012.1
20260505074542 40 0 0.0 0.0 0.00 0.51 0.00 95 1012.1
20260505073056 40 0 0.0 0.0 0.00 0.51 0.00 94 1012.3
20260505071546 40 0 0.0 0.0 0.00 0.51 0.00 94 1012.1
20260505070043 40 0 0.0 1.7 0.00 0.51 0.00 94 1011.9
20260505064543 41 0 0.0 0.9 0.00 0.51 0.51 94 1011.6
20260505063048 41 0 0.0 0.0 0.00 0.51 0.51 94 1011.3
20260505061540 41 0 0.0 0.0 0.00 0.51 0.51 94 1011.4
20260505060049 42 0 0.0 0.0 0.01 0.51 0.51 94 1011.5
20260505054615 42 0 0.0 0.0 0.02 0.51 0.51 94 1011.8
20260505053048 42 0 0.0 0.0 0.03 0.51 0.51 93 1012.1
20260505051545 42 0 0.0 0.0 0.04 0.51 0.51 93 1012.3
20260505041553 42 0 0.0 2.6 0.07 0.47 0.47 93 1012.2
20260505040045 42 200 0.0 0.0 0.07 0.46 0.46 93 1012.2